| time (UTC) | temp F | wind direction | speed MPH | gust MPH | rain 1hr in | rain 24hr in | rain mn in | humidity % | barometer mb |
| 20260504231024 | 72 | 279 | 2.0 | 8.0 | 0.00 | 0.00 | 0.00 | 27 | 996.9 |
| 20260504230002 | 73 | 55 | 0.0 | 1.0 | 0.00 | 0.00 | 0.00 | 27 | 996.9 |
| 20260504225003 | 74 | 50 | 0.0 | 2.0 | 0.00 | 0.00 | 0.00 | 24 | 996.7 |
| 20260504224003 | 75 | 53 | 0.0 | 3.0 | 0.00 | 0.00 | 0.00 | 25 | 996.2 |
| 20260504223002 | 75 | 60 | 1.0 | 4.0 | 0.00 | 0.00 | 0.00 | 26 | 996.2 |
| 20260504222003 | 75 | 127 | 0.0 | 3.0 | 0.00 | 0.00 | 0.00 | 28 | 996.2 |
| 20260504221004 | 76 | 119 | 0.0 | 5.0 | 0.00 | 0.00 | 0.00 | 23 | 995.9 |
| 20260504220002 | 77 | 125 | 1.0 | 4.0 | 0.00 | 0.00 | 0.00 | 27 | 995.9 |
| 20260504215003 | 76 | 191 | 0.0 | 3.0 | 0.00 | 0.00 | 0.00 | 28 | 996.1 |
| 20260504214003 | 77 | 208 | 1.0 | 7.0 | 0.00 | 0.00 | 0.00 | 26 | 996.7 |
| 20260504213002 | 76 | 353 | 0.0 | 4.0 | 0.00 | 0.00 | 0.00 | 26 | 996.7 |
| 20260504212002 | 75 | 346 | 1.0 | 6.0 | 0.00 | 0.00 | 0.00 | 24 | 996.9 |
| 20260504211003 | 75 | 108 | 0.0 | 7.0 | 0.00 | 0.00 | 0.00 | 25 | 997.0 |
| 20260504210004 | 75 | 67 | 0.0 | 2.0 | 0.00 | 0.00 | 0.00 | 24 | 997.0 |
| 20260504205003 | 75 | 59 | 1.0 | 4.0 | 0.00 | 0.00 | 0.00 | 28 | 997.3 |
| 20260504204025 | 75 | 183 | 0.0 | 3.0 | 0.00 | 0.00 | 0.00 | 28 | 997.5 |
| 20260504203003 | 74 | 58 | 0.0 | 2.0 | 0.00 | 0.00 | 0.00 | 28 | 997.5 |
| 20260504202003 | 74 | 27 | 0.0 | 3.0 | 0.00 | 0.00 | 0.00 | 26 | 997.9 |
| 20260504201024 | 73 | 37 | 1.0 | 6.0 | 0.00 | 0.00 | 0.00 | 29 | 997.8 |
| 20260504200003 | 73 | 52 | 2.0 | 6.0 | 0.00 | 0.00 | 0.00 | 29 | 997.8 |
| 20260504195003 | 73 | 10 | 0.0 | 7.0 | 0.00 | 0.00 | 0.00 | 28 | 997.9 |
| 20260504194003 | 73 | 356 | 0.0 | 7.0 | 0.00 | 0.00 | 0.00 | 32 | 998.2 |
| 20260504193003 | 73 | 353 | 2.0 | 6.0 | 0.00 | 0.00 | 0.00 | 26 | 998.2 |
| 20260504192002 | 72 | 49 | 2.0 | 6.0 | 0.00 | 0.00 | 0.00 | 29 | 998.4 |
| 20260504191003 | 72 | 49 | 4.0 | 6.0 | 0.00 | 0.00 | 0.00 | 28 | 998.7 |
| 20260504190045 | 72 | 62 | 2.0 | 6.0 | 0.00 | 0.00 | 0.00 | 31 | 998.7 |
| 20260504185004 | 72 | 77 | 0.0 | 2.0 | 0.00 | 0.00 | 0.00 | 28 | 999.1 |
| 20260504184004 | 72 | 48 | 0.0 | 1.0 | 0.00 | 0.00 | 0.00 | 33 | 999.3 |
| 20260504183004 | 71 | 78 | 0.0 | 0.0 | 0.00 | 0.00 | 0.00 | 31 | 999.3 |
| 20260504182003 | 70 | 109 | 0.0 | 0.0 | 0.00 | 0.00 | 0.00 | 32 | 999.8 |
| 20260504181003 | 69 | 356 | 0.0 | 3.0 | 0.00 | 0.00 | 0.00 | 35 | 1000.0 |
| 20260504180004 | 68 | 36 | 0.0 | 3.0 | 0.00 | 0.00 | 0.00 | 38 | 1000.0 |
| 20260504175003 | 68 | 340 | 0.0 | 0.0 | 0.00 | 0.00 | 0.00 | 34 | 1000.2 |
| 20260504174002 | 67 | 340 | 0.0 | 2.0 | 0.00 | 0.00 | 0.00 | 36 | 1000.6 |
| 20260504173024 | 67 | 37 | 0.0 | 0.0 | 0.00 | 0.00 | 0.00 | 37 | 1000.6 |
| 20260504172003 | 67 | 328 | 0.0 | 0.0 | 0.00 | 0.00 | 0.00 | 37 | 1000.6 |
| 20260504171002 | 65 | 326 | 0.0 | 0.0 | 0.00 | 0.00 | 0.00 | 36 | 1000.6 |
| 20260504151003 | 57 | 52 | 0.0 | 0.0 | 0.00 | 0.00 | 0.00 | 44 | 1001.2 |
| 20260504141002 | 51 | 291 | 0.0 | 0.0 | 0.00 | 0.00 | 0.00 | 57 | 1001.9 |
| 20260504081024 | 43 | 339 | 0.0 | 0.0 | 0.00 | 0.00 | 0.00 | 67 | 1000.1 |
| 20260504050004 | 49 | 356 | 0.0 | 0.0 | 0.00 | 0.00 | 0.00 | 52 | 1002.0 |
| 20260504045003 | 49 | 356 | 0.0 | 0.0 | 0.00 | 0.00 | 0.00 | 52 | 1002.0 |
| 20260504044003 | 50 | 356 | 0.0 | 0.0 | 0.00 | 0.00 | 0.00 | 53 | 1001.8 |
| 20260504043003 | 50 | 356 | 0.0 | 0.0 | 0.00 | 0.00 | 0.00 | 52 | 1001.8 |
| 20260504042003 | 50 | 356 | 0.0 | 0.0 | 0.00 | 0.00 | 0.00 | 50 | 1001.9 |
| 20260504041049 | 51 | 356 | 0.0 | 0.0 | 0.00 | 0.00 | 0.00 | 49 | 1002.4 |
| 20260504040003 | 51 | 356 | 0.0 | 0.0 | 0.00 | 0.00 | 0.00 | 47 | 1002.4 |
| 20260504035002 | 52 | 33 | 0.0 | 0.0 | 0.00 | 0.00 | 0.00 | 47 | 1002.3 |
| 20260504034003 | 52 | 31 | 0.0 | 0.0 | 0.00 | 0.00 | 0.00 | 47 | 1001.8 |
| 20260504033024 | 53 | 31 | 0.0 | 0.0 | 0.00 | 0.00 | 0.00 | 47 | 1001.8 |
| 20260504032003 | 53 | 43 | 1.0 | 5.0 | 0.00 | 0.00 | 0.00 | 44 | 1001.6 |
| 20260504031004 | 54 | 235 | 0.0 | 0.0 | 0.00 | 0.00 | 0.00 | 42 | 1001.5 |
| 20260504030004 | 55 | 236 | 0.0 | 0.0 | 0.00 | 0.00 | 0.00 | 42 | 1001.5 |
| 20260504025002 | 55 | 236 | 0.0 | 0.0 | 0.00 | 0.00 | 0.00 | 39 | 1001.6 |
| 20260504024003 | 56 | 235 | 0.0 | 0.0 | 0.00 | 0.00 | 0.00 | 41 | 1001.0 |
| 20260504023003 | 58 | 235 | 0.0 | 0.0 | 0.00 | 0.00 | 0.00 | 40 | 1001.0 |
| 20260504022024 | 59 | 235 | 0.0 | 0.0 | 0.00 | 0.00 | 0.00 | 38 | 1000.8 |
| 20260504021002 | 61 | 235 | 0.0 | 0.0 | 0.00 | 0.00 | 0.00 | 37 | 1001.5 |
| 20260504020003 | 63 | 239 | 0.0 | 0.0 | 0.00 | 0.00 | 0.00 | 38 | 1001.5 |
| 20260504015025 | 66 | 236 | 0.0 | 0.0 | 0.00 | 0.00 | 0.00 | 38 | 1000.7 |
| 20260504014003 | 69 | 237 | 0.0 | 0.0 | 0.00 | 0.00 | 0.00 | 35 | 1000.3 |
| 20260504013002 | 72 | 239 | 0.0 | 1.0 | 0.00 | 0.00 | 0.00 | 25 | 1000.3 |
| 20260504012004 | 73 | 235 | 0.0 | 1.0 | 0.00 | 0.00 | 0.00 | 23 | 1000.1 |
| 20260504011003 | 74 | 232 | 0.0 | 2.0 | 0.00 | 0.00 | 0.00 | 18 | 1001.6 |
| 20260504010003 | 75 | 226 | 0.0 | 2.0 | 0.00 | 0.00 | 0.00 | 14 | 1001.6 |
| 20260504005003 | 77 | 224 | 0.0 | 7.0 | 0.00 | 0.00 | 0.00 | 15 | 1001.5 |
| 20260504004003 | 77 | 227 | 2.0 | 7.0 | 0.00 | 0.00 | 0.00 | 12 | 1001.6 |
| 20260504003003 | 77 | 274 | 0.0 | 3.0 | 0.00 | 0.00 | 0.00 | 13 | 1001.6 |
| 20260504002002 | 77 | 260 | 3.0 | 7.0 | 0.00 | 0.00 | 0.00 | 15 | 1001.7 |
| 20260504001003 | 77 | 213 | 4.0 | 8.0 | 0.00 | 0.00 | 0.00 | 12 | 1001.4 |
| 20260504000002 | 77 | 208 | 0.0 | 5.0 | 0.00 | 0.00 | 0.00 | 15 | 1001.4 |
| 20260503235003 | 77 | 277 | 0.0 | 10.0 | 0.00 | 0.00 | 0.00 | 14 | 1001.6 |
| 20260503234003 | 77 | 246 | 0.0 | 6.0 | 0.00 | 0.00 | 0.00 | 12 | 1001.7 |
| 20260503233003 | 77 | 133 | 0.0 | 6.0 | 0.00 | 0.00 | 0.00 | 13 | 1001.7 |
| 20260503232003 | 77 | 224 | 0.0 | 7.0 | 0.00 | 0.00 | 0.00 | 13 | 1002.1 |